QPF
0.02 0.02 0.04 0.05 0.05 0.05 0.04 0.05 0.06 0.06 0.06 0.06 0.06 0.06 0.07 0.08 0.08 0.09 0.08 0.06 0.05 0.03 0.03 0.03 0.02 0.02 0.02 0.02 0.02 0.01 0.01 0.01 0.01 0.02 0.02 0.03 0.05 0.06
0.03 0.02 0.02 0.03 0.04 0.04 0.04 0.04 0.05 0.05 0.05 0.04 0.05 0.06 0.07 0.09 0.10 0.09 0.10 0.09 0.06 0.05 0.04 0.03 0.03 0.02 0.02 0.02 0.02 0.02 0.01 0.01 0.02 0.02 0.02 0.03 0.04 0.05
0.04 0.04 0.03 0.03 0.03 0.03 0.04 0.04 0.04 0.05 0.05 0.03 0.03 0.04 0.06 0.07 0.08 0.09 0.11 0.10 0.07 0.07 0.07 0.06 0.04 0.03 0.02 0.02 0.02 0.02 0.01 0.02 0.02 0.03 0.02 0.02 0.03 0.03
0.05 0.04 0.04 0.03 0.04 0.04 0.04 0.03 0.03 0.03 0.03 0.03 0.03 0.04 0.06 0.06 0.06 0.07 0.09 0.11 0.08 0.07 0.07 0.07 0.06 0.05 0.04 0.03 0.03 0.03 0.02 0.02 0.02 0.02 0.03 0.03 0.02 0.02
0.07 0.06 0.06 0.05 0.06 0.05 0.04 0.04 0.04 0.03 0.02 0.03 0.03 0.04 0.05 0.07 0.07 0.07 0.08 0.10 0.10 0.07 0.07 0.06 0.05 0.05 0.04 0.04 0.03 0.03 0.03 0.02 0.02 0.02 0.02 0.03 0.02 0.02
0.10 0.08 0.07 0.06 0.06 0.06 0.05 0.04 0.04 0.03 0.03 0.03 0.03 0.04 0.04 0.06 0.08 0.08 0.09 0.10 0.11 0.10 0.09 0.07 0.05 0.04 0.03 0.03 0.02 0.02 0.02 0.02 0.02 0.02 0.02 0.02 0.02 0.02
0.12 0.10 0.08 0.07 0.06 0.07 0.06 0.05 0.04 0.04 0.04 0.04 0.04 0.04 0.04 0.05 0.08 0.10 0.09 0.10 0.09 0.09 0.10 0.10 0.07 0.04 0.03 0.02 0.02 0.01 0.01 0.01 0.01 0.01 0.01 0.01 0.01 0.02
0.10 0.10 0.09 0.08 0.08 0.07 0.07 0.07 0.06 0.05 0.04 0.04 0.04 0.04 0.04 0.04 0.05 0.08 0.10 0.10 0.10 0.08 0.08 0.09 0.08 0.06 0.03 0.02 0.02 0.02 0.01 0.01 0.01 0.01 0.01 0.01 0.01 0.02
0.09 0.09 0.09 0.08 0.09 0.08 0.07 0.08 0.07 0.06 0.05 0.04 0.04 0.04 0.04 0.04 0.04 0.06 0.08 0.08 0.07 0.06 0.06 0.07 0.08 0.07 0.04 0.03 0.03 0.02 0.02 0.01 0.01 0.01 0.01 0.01 0.01 0.01
0.09 0.11 0.12 0.11 0.09 0.07 0.06 0.06 0.06 0.05 0.04 0.03 0.03 0.04 0.05 0.05 0.05 0.07 0.08 0.08 0.08 0.08 0.07 0.07 0.07 0.06 0.05 0.04 0.03 0.03 0.02 0.02 0.01 0.01 0.01 0.01 0.01 0.01
0.04 0.06 0.09 0.10 0.10 0.09 0.07 0.06 0.06 0.05 0.04 0.04 0.05 0.05 0.06 0.07 0.07 0.08 0.09 0.10 0.10 0.09 0.08 0.07 0.06 0.06 0.06 0.05 0.04 0.03 0.02 0.02 0.02 0.01 0.01 0.01 0.01 0.01
0.05 0.04 0.06 0.08 0.10 0.11 0.09 0.08 0.08 0.07 0.06 0.05 0.05 0.06 0.06 0.08 0.09 0.09 0.08 0.08 0.08 0.09 0.08 0.06 0.06 0.06 0.08 0.07 0.05 0.04 0.03 0.02 0.02 0.01 0.01 0.01 0.01 0.01
0.07 0.06 0.06 0.07 0.09 0.11 0.12 0.11 0.09 0.08 0.07 0.06 0.05 0.05 0.06 0.07 0.09 0.10 0.10 0.08 0.07 0.07 0.06 0.05 0.05 0.05 0.06 0.06 0.05 0.05 0.04 0.03 0.02 0.02 0.01 0.01 0.01 0.01
0.07 0.08 0.09 0.09 0.09 0.10 0.11 0.10 0.10 0.09 0.08 0.07 0.07 0.07 0.07 0.06 0.07 0.09 0.10 0.10 0.08 0.06 0.05 0.05 0.05 0.05 0.05 0.05 0.04 0.04 0.05 0.04 0.03 0.03 0.02 0.02 0.02 0.02
0.05 0.06 0.07 0.08 0.09 0.09 0.10 0.11 0.10 0.10 0.11 0.11 0.09 0.08 0.07 0.07 0.07 0.08 0.09 0.09 0.08 0.07 0.06 0.05 0.05 0.05 0.05 0.05 0.04 0.03 0.04 0.04 0.04 0.03 0.03 0.03 0.02 0.02
0.06 0.05 0.05 0.06 0.07 0.08 0.09 0.09 0.11 0.11 0.11 0.12 0.12 0.10 0.08 0.08 0.08 0.08 0.08 0.08 0.09 0.08 0.07 0.06 0.06 0.06 0.06 0.05 0.04 0.04 0.03 0.04 0.04 0.04 0.04 0.03 0.02 0.02
0.07 0.07 0.06 0.05 0.06 0.07 0.08 0.08 0.08 0.09 0.10 0.09 0.10 0.10 0.10 0.10 0.09 0.09 0.09 0.09 0.09 0.08 0.07 0.07 0.06 0.06 0.06 0.05 0.05 0.05 0.04 0.04 0.04 0.04 0.05 0.04 0.03 0.02
0.07 0.08 0.07 0.06 0.05 0.06 0.07 0.08 0.09 0.09 0.09 0.09 0.09 0.10 0.10 0.10 0.10 0.09 0.08 0.08 0.07 0.07 0.06 0.06 0.06 0.06 0.06 0.06 0.05 0.04 0.04 0.04 0.04 0.04 0.04 0.04 0.04 0.03
0.07 0.07 0.07 0.07 0.06 0.05 0.06 0.07 0.08 0.08 0.09 0.08 0.08 0.08 0.09 0.09 0.09 0.08 0.07 0.07 0.07 0.06 0.05 0.04 0.04 0.05 0.05 0.05 0.05 0.04 0.04 0.04 0.04 0.04 0.04 0.04 0.04 0.03
0.06 0.05 0.06 0.06 0.06 0.06 0.05 0.05 0.06 0.07 0.07 0.07 0.07 0.07 0.07 0.07 0.08 0.07 0.07 0.06 0.06 0.06 0.06 0.05 0.04 0.04 0.04 0.04 0.04 0.04 0.04 0.04 0.04 0.04 0.04 0.04 0.04 0.04
0.06 0.05 0.05 0.05 0.06 0.06 0.06 0.05 0.06 0.06 0.06 0.06 0.06 0.06 0.06 0.06 0.07 0.06 0.06 0.06 0.06 0.06 0.06 0.05 0.04 0.04 0.04 0.05 0.06 0.05 0.04 0.04 0.04 0.04 0.04 0.04 0.05 0.05
0.05 0.05 0.05 0.05 0.05 0.06 0.06 0.06 0.06 0.06 0.05 0.05 0.05 0.05 0.05 0.05 0.06 0.06 0.06 0.06 0.06 0.06 0.05 0.05 0.04 0.04 0.04 0.05 0.05 0.05 0.05 0.04 0.04 0.05 0.05 0.05 0.05 0.05
0.04 0.04 0.04 0.04 0.05 0.05 0.06 0.06 0.05 0.05 0.05 0.05 0.05 0.04 0.04 0.05 0.05 0.05 0.06 0.05 0.05 0.05 0.05 0.05 0.05 0.05 0.05 0.04 0.04 0.04 0.04 0.04 0.04 0.04 0.04 0.04 0.04 0.04
MSLP
1007.53 1007.56 1007.53 1007.34 1006.91 1006.24 1005.38 1004.44 1003.55 1002.88 1002.54 1002.64 1003.22 1004.23 1005.60 1007.19 1008.87 1010.53 1012.05 1013.40 1014.54 1015.52 1016.38 1017.19 1017.99 1018.83 1019.70 1020.60 1021.49 1022.35 1023.15 1023.85 1024.47 1025.02 1025.51 1025.97 1026.41 1026.86
1004.91 1005.13 1005.35 1005.43 1005.26 1004.81 1004.10 1003.25 1002.40 1001.71 1001.33 1001.38 1001.92 1002.94 1004.34 1006.01 1007.80 1009.57 1011.22 1012.67 1013.89 1014.92 1015.81 1016.63 1017.42 1018.25 1019.12 1020.03 1020.95 1021.84 1022.67 1023.42 1024.07 1024.63 1025.12 1025.57 1026.00 1026.42
1002.13 1002.50 1002.91 1003.22 1003.30 1003.06 1002.54 1001.83 1001.07 1000.44 1000.09 1000.16 1000.72 1001.77 1003.22 1004.96 1006.83 1008.70 1010.43 1011.96 1013.24 1014.31 1015.21 1016.03 1016.82 1017.64 1018.51 1019.43 1020.38 1021.31 1022.18 1022.96 1023.63 1024.21 1024.70 1025.13 1025.53 1025.93
999.48 999.91 1000.45 1000.92 1001.17 1001.13 1000.79 1000.24 999.63 999.11 998.85 999.00 999.63 1000.74 1002.25 1004.05 1005.99 1007.92 1009.71 1011.27 1012.59 1013.67 1014.58 1015.39 1016.18 1016.99 1017.87 1018.81 1019.78 1020.73 1021.63 1022.44 1023.14 1023.73 1024.21 1024.63 1025.01 1025.37
997.22 997.62 998.19 998.73 999.08 999.17 998.98 998.59 998.12 997.75 997.64 997.90 998.63 999.83 1001.41 1003.27 1005.25 1007.21 1009.02 1010.61 1011.92 1013.00 1013.91 1014.71 1015.49 1016.30 1017.18 1018.13 1019.11 1020.09 1021.02 1021.85 1022.56 1023.15 1023.64 1024.05 1024.41 1024.76
995.57 995.87 996.36 996.85 997.21 997.34 997.23 996.96 996.64 996.42 996.45 996.86 997.71 999.00 1000.66 1002.57 1004.58 1006.55 1008.36 1009.93 1011.23 1012.30 1013.19 1013.98 1014.75 1015.56 1016.43 1017.38 1018.37 1019.36 1020.29 1021.13 1021.85 1022.45 1022.94 1023.35 1023.72 1024.06
994.66 994.77 995.09 995.44 995.69 995.77 995.67 995.46 995.24 995.15 995.32 995.87 996.84 998.22 999.94 1001.88 1003.90 1005.86 1007.65 1009.20 1010.48 1011.53 1012.41 1013.19 1013.95 1014.75 1015.62 1016.56 1017.54 1018.52 1019.45 1020.28 1021.00 1021.60 1022.10 1022.52 1022.90 1023.26
994.50 994.38 994.44 994.56 994.62 994.56 994.39 994.16 993.99 993.98 994.26 994.91 995.97 997.43 999.19 1001.14 1003.15 1005.09 1006.85 1008.38 1009.64 1010.68 1011.55 1012.33 1013.09 1013.89 1014.75 1015.67 1016.63 1017.58 1018.48 1019.29 1020.00 1020.60 1021.10 1021.54 1021.94 1022.34
995.01 994.62 994.40 994.22 994.03 993.76 993.45 993.15 992.95 992.97 993.30 994.01 995.12 996.60 998.37 1000.31 1002.29 1004.19 1005.92 1007.42 1008.67 1009.71 1010.59 1011.39 1012.16 1012.96 1013.81 1014.71 1015.63 1016.54 1017.40 1018.17 1018.86 1019.44 1019.95 1020.41 1020.84 1021.27
996.06 995.41 994.89 994.41 993.93 993.42 992.92 992.48 992.21 992.20 992.51 993.22 994.32 995.78 997.50 999.38 1001.30 1003.14 1004.82 1006.30 1007.54 1008.60 1009.51 1010.34 1011.14 1011.96 1012.81 1013.68 1014.57 1015.43 1016.23 1016.97 1017.61 1018.18 1018.68 1019.15 1019.60 1020.06
997.46 996.60 995.81 995.05 994.30 993.55 992.85 992.26 991.87 991.76 992.01 992.64 993.66 995.02 996.64 998.41 1000.22 1001.97 1003.59 1005.03 1006.27 1007.35 1008.31 1009.19 1010.03 1010.88 1011.74 1012.60 1013.45 1014.27 1015.02 1015.70 1016.30 1016.84 1017.33 1017.79 1018.26 1018.73
999.08 998.07 997.08 996.10 995.12 994.17 993.28 992.53 992.01 991.77 991.89 992.38 993.25 994.45 995.89 997.49 999.14 1000.76 1002.28 1003.67 1004.90 1006.00 1007.00 1007.93 1008.83 1009.72 1010.60 1011.46 1012.29 1013.07 1013.78 1014.41 1014.97 1015.47 1015.94 1016.39 1016.85 1017.32
1000.83 999.73 998.63 997.51 996.39 995.28 994.26 993.37 992.71 992.32 992.27 992.58 993.23 994.20 995.40 996.76 998.19 999.63 1001.01 1002.30 1003.49 1004.59 1005.62 1006.60 1007.55 1008.48 1009.39 1010.26 1011.09 1011.84 1012.52 1013.12 1013.64 1014.12 1014.56 1014.99 1015.42 1015.87
1002.63 1001.53 1000.40 999.24 998.06 996.88 995.77 994.79 994.00 993.47 993.23 993.31 993.71 994.39 995.29 996.35 997.51 998.71 999.90 1001.05 1002.16 1003.22 1004.24 1005.24 1006.22 1007.19 1008.12 1009.01 1009.84 1010.59 1011.25 1011.83 1012.34 1012.79 1013.21 1013.62 1014.03 1014.44
1004.45 1003.43 1002.35 1001.23 1000.07 998.90 997.78 996.75 995.87 995.21 994.79 994.63 994.75 995.11 995.67 996.40 997.24 998.15 999.10 1000.06 1001.02 1001.99 1002.96 1003.93 1004.91 1005.88 1006.82 1007.72 1008.55 1009.31 1009.97 1010.56 1011.06 1011.51 1011.92 1012.31 1012.69 1013.07
1006.25 1005.36 1004.41 1003.39 1002.33 1001.24 1000.16 999.13 998.22 997.45 996.87 996.49 996.33 996.37 996.60 996.97 997.47 998.06 998.72 999.44 1000.21 1001.02 1001.88 1002.77 1003.69 1004.62 1005.54 1006.42 1007.25 1008.01 1008.69 1009.29 1009.81 1010.28 1010.70 1011.08 1011.44 1011.78
1007.99 1007.25 1006.46 1005.61 1004.69 1003.73 1002.75 1001.78 1000.87 1000.04 999.34 998.78 998.38 998.14 998.04 998.08 998.23 998.49 998.85 999.29 999.82 1000.43 1001.11 1001.86 1002.66 1003.50 1004.34 1005.18 1005.98 1006.73 1007.42 1008.04 1008.59 1009.09 1009.53 1009.92 1010.28 1010.60
1009.59 1009.03 1008.41 1007.73 1006.99 1006.19 1005.34 1004.47 1003.60 1002.78 1002.01 1001.33 1000.75 1000.27 999.91 999.65 999.50 999.46 999.51 999.67 999.93 1000.29 1000.75 1001.29 1001.91 1002.59 1003.31 1004.05 1004.79 1005.51 1006.19 1006.83 1007.41 1007.95 1008.43 1008.85 1009.22 1009.54
1011.00 1010.58 1010.13 1009.63 1009.06 1008.42 1007.72 1006.98 1006.20 1005.42 1004.64 1003.91 1003.22 1002.59 1002.04 1001.56 1001.17 1000.86 1000.65 1000.53 1000.52 1000.61 1000.80 1001.10 1001.50 1001.97 1002.52 1003.11 1003.75 1004.39 1005.05 1005.68 1006.29 1006.87 1007.39 1007.86 1008.26 1008.59
1012.16 1011.86 1011.54 1011.18 1010.77 1010.28 1009.73 1009.12 1008.45 1007.75 1007.03 1006.30 1005.59 1004.89 1004.23 1003.62 1003.06 1002.56 1002.12 1001.77 1001.51 1001.34 1001.27 1001.30 1001.44 1001.67 1002.00 1002.42 1002.90 1003.45 1004.04 1004.65 1005.27 1005.87 1006.44 1006.95 1007.39 1007.76
1013.03 1012.82 1012.59 1012.34 1012.04 1011.69 1011.26 1010.78 1010.23 1009.64 1009.00 1008.34 1007.66 1006.97 1006.29 1005.63 1004.98 1004.36 1003.78 1003.25 1002.78 1002.38 1002.06 1001.83 1001.70 1001.68 1001.78 1001.99 1002.30 1002.72 1003.22 1003.78 1004.37 1004.99 1005.58 1006.13 1006.62 1007.03
1013.63 1013.45 1013.28 1013.09 1012.87 1012.60 1012.28 1011.90 1011.47 1010.99 1010.46 1009.90 1009.31 1008.69 1008.05 1007.40 1006.74 1006.08 1005.42 1004.78 1004.16 1003.57 1003.05 1002.59 1002.23 1001.97 1001.83 1001.83 1001.96 1002.22 1002.60 1003.08 1003.63 1004.23 1004.83 1005.41 1005.94 1006.39
1013.98 1013.81 1013.65 1013.48 1013.29 1013.07 1012.81 1012.51 1012.18 1011.80 1011.38 1010.93 1010.45 1009.93 1009.39 1008.81 1008.19 1007.55 1006.88 1006.18 1005.48 1004.78 1004.10 1003.47 1002.91 1002.45 1002.11 1001.91 1001.86 1001.96 1002.21 1002.59 1003.07 1003.62 1004.20 1004.79 1005.33 1005.82
Thickness
5487 5490 5494 5498 5501 5506 5510 5515 5521 5530 5540 5545 5548 5552 5554 5557 5561 5562 5566 5568 5571 5572 5573 5574 5575 5575 5575 5575 5575 5575 5575 5574 5574 5574 5575 5574 5574 5574
5477 5480 5484 5488 5491 5494 5499 5504 5510 5517 5526 5537 5538 5541 5542 5546 5550 5553 5556 5559 5562 5564 5565 5566 5566 5566 5566 5566 5567 5566 5566 5565 5565 5565 5565 5566 5566 5566
5467 5470 5474 5477 5481 5484 5488 5493 5498 5505 5514 5523 5525 5528 5531 5534 5539 5542 5546 5548 5552 5554 5556 5557 5558 5558 5558 5557 5558 5557 5557 5557 5556 5556 5556 5556 5557 5557
5457 5460 5463 5466 5470 5474 5478 5483 5488 5495 5501 5508 5513 5516 5520 5524 5528 5532 5535 5538 5542 5545 5547 5548 5548 5548 5548 5548 5548 5548 5548 5548 5547 5547 5547 5547 5548 5548
5447 5450 5454 5456 5460 5464 5468 5473 5478 5484 5490 5495 5501 5505 5508 5512 5516 5520 5524 5528 5532 5535 5537 5538 5538 5539 5539 5539 5539 5539 5539 5539 5538 5538 5537 5537 5538 5538
5437 5440 5443 5447 5451 5455 5458 5463 5468 5473 5478 5484 5489 5493 5497 5501 5504 5509 5514 5517 5521 5524 5526 5527 5528 5528 5529 5530 5530 5530 5529 5529 5528 5528 5528 5528 5528 5529
5428 5431 5435 5438 5441 5444 5448 5453 5458 5462 5467 5473 5479 5483 5488 5491 5495 5499 5503 5507 5510 5513 5514 5516 5517 5518 5518 5519 5519 5519 5519 5518 5518 5518 5518 5518 5518 5519
5419 5422 5425 5428 5432 5433 5438 5442 5447 5452 5457 5462 5469 5474 5480 5482 5485 5488 5492 5495 5498 5502 5502 5504 5505 5506 5507 5508 5509 5509 5508 5508 5508 5508 5508 5507 5508 5508
5408 5412 5415 5419 5421 5424 5428 5431 5436 5440 5445 5451 5457 5464 5467 5472 5473 5477 5481 5485 5489 5490 5489 5492 5492 5494 5496 5497 5497 5497 5496 5496 5496 5497 5497 5497 5497 5497
5398 5401 5405 5409 5412 5414 5419 5423 5427 5431 5435 5440 5447 5453 5455 5457 5461 5465 5469 5471 5473 5474 5475 5477 5480 5481 5483 5485 5485 5485 5485 5484 5484 5485 5485 5485 5485 5485
5387 5391 5394 5398 5402 5403 5407 5413 5418 5422 5424 5428 5433 5438 5442 5446 5448 5450 5454 5457 5460 5462 5462 5465 5467 5467 5468 5471 5472 5472 5472 5472 5472 5472 5472 5472 5472 5472
5376 5379 5382 5386 5388 5390 5395 5402 5407 5412 5414 5418 5422 5426 5430 5433 5436 5439 5443 5445 5448 5449 5450 5451 5453 5452 5454 5457 5458 5458 5458 5458 5459 5459 5459 5459 5459 5459
5363 5367 5370 5372 5375 5379 5384 5390 5396 5399 5402 5406 5410 5413 5417 5420 5423 5426 5429 5432 5435 5438 5439 5438 5439 5440 5441 5443 5443 5444 5444 5445 5445 5446 5445 5445 5446 5446
5350 5354 5357 5359 5362 5367 5372 5377 5380 5384 5390 5393 5397 5401 5405 5409 5411 5413 5415 5417 5420 5423 5425 5425 5426 5428 5428 5429 5430 5431 5430 5431 5431 5432 5432 5433 5433 5433
5335 5339 5341 5345 5349 5353 5358 5362 5366 5370 5375 5381 5385 5390 5393 5396 5397 5399 5401 5402 5404 5406 5409 5411 5413 5414 5416 5417 5417 5417 5417 5417 5417 5418 5419 5419 5421 5421
5320 5323 5326 5330 5334 5338 5343 5347 5352 5356 5361 5366 5371 5374 5378 5380 5383 5385 5387 5388 5389 5390 5393 5396 5398 5400 5401 5402 5403 5404 5404 5405 5406 5405 5405 5405 5406 5408
5306 5309 5312 5316 5320 5324 5328 5332 5336 5341 5346 5350 5354 5358 5362 5366 5369 5370 5372 5373 5375 5377 5379 5381 5382 5384 5386 5387 5387 5389 5390 5391 5391 5391 5390 5392 5393 5395
5292 5296 5300 5303 5306 5310 5314 5317 5321 5326 5330 5335 5339 5344 5347 5351 5353 5355 5358 5360 5362 5364 5366 5367 5368 5369 5369 5369 5371 5374 5376 5376 5376 5376 5376 5378 5382 5383
5280 5283 5286 5289 5292 5296 5299 5303 5308 5312 5317 5320 5325 5330 5333 5336 5339 5340 5343 5345 5348 5350 5352 5353 5355 5357 5359 5360 5360 5359 5361 5362 5362 5362 5363 5366 5369 5371
5266 5270 5273 5276 5279 5283 5286 5290 5294 5299 5304 5308 5312 5315 5318 5322 5325 5326 5328 5331 5333 5336 5338 5339 5341 5344 5346 5348 5348 5346 5346 5347 5349 5350 5351 5352 5355 5356
5253 5257 5260 5263 5266 5270 5274 5278 5282 5287 5291 5295 5299 5302 5305 5308 5311 5312 5314 5316 5319 5322 5325 5327 5328 5329 5330 5331 5332 5334 5333 5333 5334 5336 5337 5339 5341 5344
5242 5245 5249 5252 5255 5258 5262 5267 5271 5276 5279 5283 5287 5290 5293 5295 5297 5299 5301 5304 5307 5309 5311 5312 5313 5315 5317 5318 5320 5321 5321 5320 5320 5322 5323 5326 5328 5332
5233 5235 5238 5241 5245 5248 5252 5256 5261 5265 5268 5272 5276 5279 5281 5282 5284 5286 5289 5291 5294 5296 5297 5299 5300 5301 5303 5304 5305 5307 5307 5308 5309 5310 5312 5313 5315 5317